Voltar ao catálogo

INNOSAT16

AtivoCiênciaSSO
NORAD 64878·PAYLOAD·🇲🇾 Malaysia
Este nome de satélite ainda não foi confirmado por fontes oficiais.

Lançado Jul 25, 2025 de Vostochny Cosmodrome

Loading…

Próximas Passagens (próximas 24 horas)

TLE

AtualizadoSource: Space-Track

Época: Sep 14, 2026, 13:56 UTC

1 64878U 25155C   26257.58082536  .00004613  00000-0  18046-3 0  9996
2 64878  97.4679 224.5315 0008840 222.8877 137.1673 15.26305921 94303

Acompanhe INNOSAT16 em tempo real com AllMySat

Download on the App Store